This is the latest recevied weather packets stored in our database for station/object K5KHP. If no packets are shown the sender has not sent any weather packets the latest 10 day(s).
| Time | Temp. | Humidity | Pressure | Rain* | Wind** | Luminosity | Snow |
|---|---|---|---|---|---|---|---|
| 1777940732 | 17.22° C | 77% | 1014.3 hPa | 0 mm | - | 90 W/m² | - |
| 1777940432 | 16.67° C | 78% | 1014.2 hPa | 0 mm | - | 92 W/m² | - |
| 1777940128 | 16.67° C | 78% | 1014.1 hPa | 0 mm | - | 105 W/m² | - |
| 1777939825 | 16.67° C | 78% | 1014.2 hPa | 0 mm | - | 88 W/m² | - |
| 1777939523 | 17.22° C | 77% | 1014.1 hPa | 0 mm | - | 97 W/m² | - |
| 1777939220 | 17.22° C | 74% | 1014 hPa | 0 mm | - | 91 W/m² | - |
| 1777938917 | 17.78° C | 74% | 1013.9 hPa | 0 mm | - | 118 W/m² | - |
| 1777938613 | 17.78° C | 72% | 1013.8 hPa | 0 mm | - | 154 W/m² | - |
| 1777938310 | 17.78° C | 72% | 1013.8 hPa | 0 mm | - | 138 W/m² | - |
| 1777938007 | 18.33° C | 71% | 1013.9 hPa | 0 mm | - | 82 W/m² | - |
| 1777937702 | 18.33° C | 71% | 1013.8 hPa | 0 mm | - | 105 W/m² | - |
| 1777937400 | 17.78° C | 69% | 1013.9 hPa | 0 mm | - | 416 W/m² | - |
| 1777937097 | 18.33° C | 69% | 1014.1 hPa | 0 mm | - | 157 W/m² | - |
| 1777936794 | 18.89° C | 67% | 1014 hPa | 0 mm | - | 123 W/m² | - |
| 1777936490 | 18.89° C | 69% | 1013.7 hPa | 0 mm | - | 199 W/m² | - |
| 1777936187 | 18.89° C | 71% | 1014.1 hPa | 0 mm | - | 540 W/m² | - |
| 1777935883 | 18.89° C | 71% | 1014 hPa | 0 mm | - | 521 W/m² | - |
| 1777935583 | 18.33° C | 69% | 1014.1 hPa | 0 mm | - | 257 W/m² | - |
| 1777935279 | 18.33° C | 71% | 1014.2 hPa | 0 mm | - | 269 W/m² | - |
| 1777934976 | 17.78° C | 71% | 1014.2 hPa | 0 mm | - | 296 W/m² | - |
| 1777934672 | 17.78° C | 72% | 1014.1 hPa | 0 mm | - | 602 W/m² | - |
| 1777934370 | 17.78° C | 71% | 1014.2 hPa | 0 mm | - | 187 W/m² | - |
| 1777934065 | 17.78° C | 71% | 1014.6 hPa | 0 mm | - | 196 W/m² | - |
| 1777933761 | 17.78° C | 69% | 1014.4 hPa | 0 mm | - | 237 W/m² | - |
| 1777933459 | 18.33° C | 68% | 1014.5 hPa | 0 mm | - | 290 W/m² | - |
* Rain latest hour (hover to see other rain measurements)
** Current wind speed in m/s (hover to see current wind gust speed)